Regional Weather Roundup
Issued by NWS

Home | Current Version | Previous Version | Text Only | Print | Product List | Glossary Off
Versions: 1 2 3 4 5 6 7 8 9 10 11 12 13 14 15 16 17 18 19 20 21 22 23 24 25 26 27 28 29 30 31 32 33 34 35 36 37 38 39 40 41 42 43 44 45 46 47 48 49 50

000
ASUS45 KTFX 251110
RWRMT
MONTANA REGIONAL WEATHER ROUNDUP
NATIONAL WEATHER SERVICE GREAT FALLS MT
500 AM MDT WED MAY 25 2016

NOTE: "FAIR" INDICATES FEW OR NO CLOUDS BELOW 12000 FEET WITH NO
SIGNIFICANT WEATHER AND/OR OBSTRUCTIONS TO VISIBILITY.

MTZ001>007-043-251200-
WEST OF THE DIVIDE

CITY           SKY/WX    TMP DP  RH WIND       PRES   REMARKS
KALISPELL      CLOUDY    43  43 100 CALM      29.94F
MISSOULA       CLEAR     37  34  89 CALM      29.99S
BUTTE          CLOUDY    31  30  96 CALM      29.98R
MULLAN PASS    FOG       38  38 100 VRB5      29.99S VSB 1/4
ANACONDA         N/A     36  34  93 CALM      29.97R
DEER LODGE       N/A     34  34 100 W3        29.99R
EUREKA           N/A     41  37  87 CALM      29.94R
HAMILTON         N/A     37  37 100 S3        29.98R
LIBBY            N/A     37  37 100 CALM      29.96S
PLAINS           N/A     40  37  89 CALM      29.98R
$$

MTZ008-052>055-251200-
SOUTHWEST MONTANA

CITY           SKY/WX    TMP DP  RH WIND       PRES   REMARKS
BOZEMAN        CLOUDY    40  38  93 S5        29.95R
DILLON         CLOUDY    40  37  89 SW3       29.95R
ENNIS          CLOUDY    41  39  93 E5        30.01R
TWIN BRIDGES     N/A     41  36  82 NE2       29.95S
$$

MTZ009-010-012-014-046-048-049-054-251200-
EAST SLOPES AND CENTRAL MONTANA

CITY           SKY/WX    TMP DP  RH WIND       PRES   REMARKS
CUT BANK       PTCLDY    37  35  92 W7        29.87S WCI  32
GREAT FALLS    CLEAR     38  35  89 S8        29.89F
MALMSTROM AFB  CLEAR     37  36  97 S6        29.90S
HELENA         CLEAR     41  37  86 CALM      29.93S
CHOTEAU          N/A     39  36  87 SW8       29.89S
CONRAD           N/A     36  36 100 SW2       29.90S
$$

MTZ011-013-016-021-045-047-050-051-251200-
NORTH CENTRAL MONTANA

CITY           SKY/WX    TMP DP  RH WIND       PRES   REMARKS
HAVRE            N/A    N/A N/A N/A MISG      29.87S
LEWISTOWN      CLOUDY    38  34  85 SE6       29.91S
N BAR RANCH      N/A     34  32  93 NW5       29.93S
CHINOOK          N/A     41  41 100 CALM      29.87S
$$

MTZ017>020-022>027-061-062-251200-
NORTHEAST MONTANA

CITY           SKY/WX    TMP DP  RH WIND       PRES   REMARKS
GLASGOW        CLOUDY    44  41  89 CALM      29.87R
JORDAN           N/A     45  43  93 CALM      29.87S
SIDNEY         CLOUDY    54  48  82 N12G17    29.82F
WOLF POINT     LGT RAIN  51  48  89 NE9       29.88S
PLENTYWOOD       N/A     52  46  82 N6        29.89F
POPLAR           N/A     52  48  87 CALM      29.89S
SCOBEY           N/A     40  31  70 W2        29.88S
$$

MTZ028>42-056>058-251200-
SOUTHCENTRAL AND SOUTHEAST MONTANA

CITY           SKY/WX    TMP DP  RH WIND       PRES   REMARKS
BAKER          CLOUDY    51  46  83 E10       29.82S
BILLINGS       MOCLDY    47  42  83 NW6       29.91R
LIVINGSTON     CLOUDY    39  36  89 W3        29.93R
MILES CITY     CLOUDY    51  48  89 N5        29.88R
EKALAKA          N/A     47  44  89 W2        29.83S
FORSYTH          N/A     54  52  94 CALM      29.87R
$$

REGIONAL REPORTS...DAKOTAS

CITY           SKY/WX    TMP DP  RH WIND       PRES   REMARKS
WILLISTON      RAIN      51  47  86 N13       29.85F
MINOT          CLOUDY    59  55  87 S5        29.85R
DICKINSON      CLOUDY    49  47  93 E5        29.81R
BEACH          CLOUDY    48  48 100 N5        29.85S
CROSBY         CLOUDY    48  48 100 NW10      29.89F
WATFORD CITY   LGT RAIN  50  50 100 NE9       29.83F
BISMARCK       CLOUDY    58  56  93 CALM      29.81F
GRAND FORKS    CLOUDY    59  52  77 E8        29.84F
FARGO          CLOUDY    66  49  54 E13       29.80F
BUFFALO SD       N/A     52  47  83 CALM      29.77S
RAPID CITY     CLEAR     44  42  93 W5        29.85R
$$

REGIONAL REPORTS...WYOMING/IDAHO/WASHINGTON

CITY           SKY/WX    TMP DP  RH WIND       PRES   REMARKS
GILLETTE       CLOUDY    47  46  97 N6        29.89R
SHERIDAN       CLOUDY    48  45  89 CALM      29.91S
BUFFALO WY     CLOUDY    46  42  86 N9        29.92S
CODY           CLOUDY    45  43  93 SE6       29.92R
YELLOWSTONE LA   N/A     33  31  92 CALM      30.01S
IDAHO FALLS    LGT RAIN  46  44  93 CALM      29.97S FOG
SALMON         CLOUDY    45  37  76 CALM      29.96S
BOISE          MOCLDY    53  41  63 NW6       29.94R
SPOKANE        MOCLDY    49  45  86 S6        29.94F
$$

REGIONAL REPORTS...ALBERTA

CITY           SKY/WX    TMP DP  RH WIND       PRES   REMARKS
EDMONTON       CLEAR     45  41  87 CALM      29.83R
CALGARY        PTCLDY    43  41  93 S3        29.85S
LETHBRIDGE     CLEAR     39  39 100 S10       29.85S
MEDICINE HAT   CLEAR     39  39 100 CALM      29.87S
WATERTON GATE    N/A     48  37  66 SW18G29     N/A
MILK RIVER       N/A     34  32  93 NW5         N/A
ONEFOUR          N/A     41  39  93 NE9         N/A
$$

REGIONAL REPORTS...SASKATCHEWAN

CITY           SKY/WX    TMP DP  RH WIND       PRES   REMARKS
SWIFT CURRENT  FOG       45  45 100 S6        29.86S VSB 1/8
REGINA         PTCLDY    39  37  93 SE7       29.89S
SASKATOON      PTCLDY    41  41 100 N7        29.89R FOG
CYPRESS HILLS    N/A     37  36  93 W2          N/A
VAL MARIE        N/A     34  32  93 NE3         N/A
ROCKGLEN         N/A     41  41 100 W6          N/A
ASSINIBOIA       N/A     43  43 100 S6          N/A
$$



USA.gov is the U.S. government's official web portal to all federal, state and local government web resources and services.